Hourly Data Report for September 15, 2021

TORONTO CITY
ONTARIO
Current Station Operator: ECCC - MSC

43°40'00.000" N
79°24'00.000" W
112.50 m
6158355
71508
XTO

Download Data

Hourly Data (September 2021)
Hourly Data Report for September 15, 2021
TIME
LST
Temp Definition
°C
Dew Point Definition
°C
Rel Hum Definition
%
Precip. Amount Definition
mm

Wind Dir Definition
10's deg

Wind Spd Definition
km/h
Visibility Definition
km
Stn Press Definition
kPa
Hmdx Definition


Wind Chill Definition


Weather Definition


00:00 19.9 18.6 92 8.8       99.35     LegendNANA
01:00 19.7 18.5 93 0.0       99.49     LegendNANA
02:00 19.2 18.3 94 0.0       99.55     LegendNANA
03:00 18.2 16.8 91 0.0       99.65     LegendNANA
04:00 17.9 17.2 95 0.0       99.66     LegendNANA
05:00 17.4 15.7 90 0.0       99.66     LegendNANA
06:00 17.0 14.8 87 0.0       99.75     LegendNANA
07:00 16.9 13.9 83 0.0       99.81     LegendNANA
08:00 17.3 14.1 82 0.0       99.88     LegendNANA
09:00 18.1 13.0 72 0.0       99.96     LegendNANA
10:00 19.4 12.7 65 0.0       100.03     LegendNANA
11:00 20.6 12.4 60 0.0       100.06     LegendNANA
12:00 21.3 12.0 56 0.0       100.07     LegendNANA
13:00 22.2 11.7 51 0.0       100.06     LegendNANA
14:00 21.7 11.2 51 0.0       100.07     LegendNANA
15:00 21.6 11.9 54 0.0       100.09     LegendNANA
16:00 21.2 13.5 62 0.0       100.13     LegendNANA
17:00 20.3 13.6 65 0.0       100.19     LegendNANA
18:00 19.5 13.5 68 0.0       100.26     LegendNANA
19:00 18.9 13.8 72 0.0       100.34     LegendNANA
20:00 18.8 14.3 75 0.0       100.43     LegendNANA
21:00 19.4 13.9 70 0.0       100.52     LegendNANA
22:00 18.2 13.7 75 0.0       100.56     LegendNANA
23:00 17.2 14.1 82 0.0       100.61     LegendNANA

Notes on Data Quality.

Legend

  • E = Estimated
  • M = Missing
  • NA = Not Available*
  • [empty] = Indicates an unobserved value
Date modified: